20-08-2023, 00:00:01,    227,    0.0,   13.1,   0.00,   0.00, 1016.1,    0.5, -999.0
20-08-2023, 00:00:12,    228,    0.0,   13.2,   0.00,   0.00, 1016.0,    0.1, -999.0
20-08-2023, 00:00:21,    227,    0.0,   13.1,   0.00,   0.00, 1016.0,    0.3, -999.0
20-08-2023, 00:00:31,    227,    0.0,   13.1,   0.00,   0.00, 1016.1,    0.2, -999.0
20-08-2023, 00:00:41,    227,    0.0,   13.1,   0.00,   0.00, 1016.1,    0.1, -999.0
20-08-2023, 00:00:51,    228,    0.0,   13.1,   0.00,   0.00, 1016.0,    0.0, -999.0
20-08-2023, 00:01:01,    227,    0.0,   13.1,   0.00,   0.00, 1016.0,    0.2, -999.0
20-08-2023, 00:01:11,    227,    0.0,   13.1,   0.00,   0.00, 1016.1,    0.2, -999.0
20-08-2023, 00:01:21,    228,    0.0,   13.1,   0.00,   0.00, 1016.1,    0.1, -999.0
20-08-2023, 00:01:31,    227,    0.0,   13.1,   0.00,   0.00, 1016.1,    0.1, -999.0
20-08-2023, 00:01:41,    228,    0.0,   13.1,   0.00,   0.00, 1016.1,    0.3, -999.0
20-08-2023, 00:01:51,    227,    0.0,   13.1,   0.00,   0.00, 1016.1,    0.3, -999.0
20-08-2023, 00:02:01,    227,    0.0,   13.2,   0.00,   0.00, 1016.1,    0.1, -999.0
20-08-2023, 00:02:11,    227,    0.0,   13.1,   0.00,   0.00, 1016.1,    0.5, -999.0
20-08-2023, 00:02:21,    227,    0.0,   13.2,   0.00,   0.00, 1016.1,    0.1, -999.0
20-08-2023, 00:02:31,    228,    0.0,   13.1,   0.00,   0.00, 1016.0,    0.2, -999.0
20-08-2023, 00:02:41,    227,    0.0,   13.1,   0.00,   0.00, 1016.0,    0.4, -999.0
20-08-2023, 00:02:51,    227,    0.0,   13.1,   0.00,   0.00, 1016.0,    0.2, -999.0
20-08-2023, 00:03:01,    227,    0.0,   13.1,   0.00,   0.00, 1016.0,    0.2, -999.0
20-08-2023, 00:03:11,    227,    0.0,   13.1,   0.00,   0.00, 1016.0,    0.1, -999.0
20-08-2023, 00:03:21,    227,    0.0,   13.1,   0.00,   0.00, 1016.1,    0.2, -999.0
20-08-2023, 00:03:31,    227,    0.0,   13.1,   0.00,   0.00, 1016.1,    0.5, -999.0
20-08-2023, 00:03:41,    228,    0.0,   13.1,   0.00,   0.00, 1016.0,    0.0, -999.0
20-08-2023, 00:03:51,    228,    0.0,   13.1,   0.00,   0.00, 1016.0,    0.6, -999.0
20-08-2023, 00:04:01,    227,    0.0,   13.1,   0.00,   0.00, 1016.1,    0.3, -999.0
20-08-2023, 00:04:11,    227,    0.0,   13.1,   0.00,   0.00, 1016.0,    0.1, -999.0
20-08-2023, 00:04:21,    227,    0.0,   13.1,   0.00,   0.00, 1016.0,    0.2, -999.0
20-08-2023, 00:04:30,    227,    0.0,   13.1,   0.00,   0.00, 1016.1,    0.1, -999.0
20-08-2023, 00:04:41,    227,    0.0,   13.1,   0.00,   0.00, 1016.0,    0.2, -999.0
20-08-2023, 00:04:51,    228,    0.0,   13.0,   0.00,   0.00, 1016.0,    0.3, -999.0
20-08-2023, 00:05:00,    228,    0.0,   13.1,   0.00,   0.00, 1016.1,    0.2, -999.0
20-08-2023, 00:05:11,    227,    0.0,   13.1,   0.00,   0.00, 1016.0,    0.2, -999.0
20-08-2023, 00:05:21,    227,    0.0,   13.0,   0.00,   0.00, 1016.0,    0.2, -999.0
20-08-2023, 00:05:30,    227,    0.0,   13.1,   0.00,   0.00, 1016.0,    0.2, -999.0
20-08-2023, 00:05:40,    227,    0.0,   13.1,   0.00,   0.00, 1016.1,    0.3, -999.0
20-08-2023, 00:05:51,    227,    0.0,   13.1,   0.00,   0.00, 1016.0,    0.2, -999.0
20-08-2023, 00:06:01,    228,    0.0,   13.1,   0.00,   0.00, 1016.0,    0.2, -999.0
20-08-2023, 00:06:10,    227,    0.0,   13.1,   0.00,   0.00, 1016.1,    0.1, -999.0
20-08-2023, 00:06:20,    227,    0.0,   13.0,   0.00,   0.00, 1016.0,    0.3, -999.0
20-08-2023, 00:06:33,    227,    0.0,   13.0,   0.00,   0.00, 1016.0,    0.2, -999.0
20-08-2023, 00:06:40,    228,    0.0,   13.1,   0.00,   0.00, 1016.1,    0.2, -999.0
20-08-2023, 00:06:50,    227,    0.0,   13.1,   0.00,   0.00, 1016.0,    0.2, -999.0
20-08-2023, 00:07:00,    227,    0.0,   13.1,   0.00,   0.00, 1016.1,    0.4, -999.0
20-08-2023, 00:07:10,    227,    0.0,   13.1,   0.00,   0.00, 1016.0,    0.3, -999.0
20-08-2023, 00:07:20,    227,    0.0,   13.1,   0.00,   0.00, 1016.0,    0.3, -999.0
20-08-2023, 00:07:30,    228,    0.0,   13.1,   0.00,   0.00, 1016.0,    0.1, -999.0
20-08-2023, 00:07:40,    228,    0.0,   13.1,   0.00,   0.00, 1016.0,    0.3, -999.0
20-08-2023, 00:07:50,    227,    0.0,   13.1,   0.00,   0.00, 1016.1,    0.2, -999.0
20-08-2023, 00:08:00,    228,    0.0,   13.1,   0.00,   0.00, 1016.0,    0.4, -999.0
20-08-2023, 00:08:10,    227,    0.0,   13.1,   0.00,   0.00, 1016.0,    0.4, -999.0
20-08-2023, 00:08:20,    227,    0.0,   13.1,   0.00,   0.00, 1016.0,    0.1, -999.0
20-08-2023, 00:08:30,    227,    0.0,   13.1,   0.00,   0.00, 1016.0,    0.1, -999.0
20-08-2023, 00:08:40,    227,    0.0,   13.1,   0.00,   0.00, 1016.0,    0.1, -999.0
20-08-2023, 00:08:50,    227,    0.0,   13.1,   0.00,   0.00, 1016.1,    0.1, -999.0
20-08-2023, 00:09:00,    228,    0.0,   13.1,   0.00,   0.00, 1016.0,    0.2, -999.0
20-08-2023, 00:09:10,    227,    0.0,   13.1,   0.00,   0.00, 1016.1,    0.3, -999.0
20-08-2023, 00:09:20,    227,    0.0,   13.1,   0.00,   0.00, 1016.0,    0.2, -999.0
20-08-2023, 00:09:30,    227,    0.0,   13.1,   0.00,   0.00, 1016.0,    0.2, -999.0
20-08-2023, 00:09:40,    228,    0.0,   13.1,   0.00,   0.00, 1016.1,    0.4, -999.0
20-08-2023, 00:09:50,    227,    0.0,   13.1,   0.00,   0.00, 1016.0,    0.2, -999.0
20-08-2023, 00:10:00,    228,    0.0,   13.1,   0.00,   0.00, 1016.0,    0.2, -999.0
20-08-2023, 00:10:10,    227,    0.0,   13.1,   0.00,   0.00, 1016.1,    0.2, -999.0
20-08-2023, 00:10:19,    227,    0.0,   13.1,   0.00,   0.00, 1016.0,    0.2, -999.0
20-08-2023, 00:10:30,    227,    0.0,   13.1,   0.00,   0.00, 1016.0,    0.1, -999.0
20-08-2023, 00:10:40,    228,    0.0,   13.1,   0.00,   0.00, 1016.0,    0.3, -999.0
20-08-2023, 00:10:50,    227,    0.0,   13.0,   0.00,   0.00, 1016.0,    0.2, -999.0
20-08-2023, 00:10:59,    228,    0.0,   13.0,   0.00,   0.00, 1016.1,    0.2, -999.0
20-08-2023, 00:11:10,    228,    0.0,   13.1,   0.00,   0.00, 1016.0,    0.3, -999.0
20-08-2023, 00:11:20,    227,    0.0,   13.1,   0.00,   0.00, 1016.0,    0.2, -999.0
20-08-2023, 00:11:29,    227,    0.0,   13.1,   0.00,   0.00, 1016.0,    0.2, -999.0
20-08-2023, 00:11:39,    225,    0.0,   13.0,   0.00,   0.00, 1016.0,    0.3, -999.0
20-08-2023, 00:11:50,    227,    0.0,   13.1,   0.00,   0.00, 1016.0,    0.2, -999.0
20-08-2023, 00:11:59,    227,    0.0,   13.1,   0.00,   0.00, 1016.0,    0.1, -999.0
20-08-2023, 00:12:09,    228,    0.0,   13.1,   0.00,   0.00, 1016.0,    0.2, -999.0
20-08-2023, 00:12:19,    227,    0.0,   13.1,   0.00,   0.00, 1016.1,    0.1, -999.0
20-08-2023, 00:12:29,    228,    0.0,   13.1,   0.00,   0.00, 1016.1,    0.1, -999.0
20-08-2023, 00:12:39,    228,    0.0,   13.0,   0.00,   0.00, 1016.1,    0.1, -999.0
20-08-2023, 00:12:49,    227,    0.0,   13.1,   0.00,   0.00, 1016.1,    0.2, -999.0
20-08-2023, 00:12:59,    228,    0.0,   13.1,   0.00,   0.00, 1016.1,    0.2, -999.0
20-08-2023, 00:13:09,    228,    0.0,   13.1,   0.00,   0.00, 1016.1,    0.2, -999.0
20-08-2023, 00:13:19,    228,    0.0,   13.1,   0.00,   0.00, 1016.1,    0.3, -999.0
20-08-2023, 00:13:29,    227,    0.0,   13.2,   0.00,   0.00, 1016.1,    0.1, -999.0
20-08-2023, 00:13:39,    227,    0.0,   13.1,   0.00,   0.00, 1016.1,    0.2, -999.0
20-08-2023, 00:13:49,    227,    0.0,   13.1,   0.00,   0.00, 1016.1,    0.2, -999.0
20-08-2023, 00:13:59,    227,    0.0,   13.1,   0.00,   0.00, 1016.1,    0.2, -999.0
20-08-2023, 00:14:09,    227,    0.0,   13.2,   0.00,   0.00, 1016.1,    0.2, -999.0
20-08-2023, 00:14:19,    228,    0.0,   13.1,   0.00,   0.00, 1016.1,    0.3, -999.0
20-08-2023, 00:14:29,    227,    0.0,   13.1,   0.00,   0.00, 1016.1,    0.2, -999.0
20-08-2023, 00:14:39,    227,    0.0,   13.2,   0.00,   0.00, 1016.1,    0.2, -999.0
20-08-2023, 00:14:49,    227,    0.0,   13.1,   0.00,   0.00, 1016.1,    0.3, -999.0
20-08-2023, 00:14:59,    229,    0.0,   13.2,   0.00,   0.00, 1016.1,    0.2, -999.0
20-08-2023, 00:15:09,    227,    0.0,   13.2,   0.00,   0.00, 1016.1,    0.2, -999.0
20-08-2023, 00:15:19,    227,    0.0,   13.2,   0.00,   0.00, 1016.1,    0.2, -999.0
20-08-2023, 00:15:29,    226,    0.0,   13.2,   0.00,   0.00, 1016.2,    0.3, -999.0
20-08-2023, 00:15:39,    227,    0.0,   13.2,   0.00,   0.00, 1016.1,    0.2, -999.0
20-08-2023, 00:15:49,    227,    0.0,   13.1,   0.00,   0.00, 1016.1,    0.2, -999.0
20-08-2023, 00:15:59,    228,    0.0,   13.1,   0.00,   0.00, 1016.1,    0.1, -999.0
20-08-2023, 00:16:09,    227,    0.0,   13.1,   0.00,   0.00, 1016.1,    0.2, -999.0
20-08-2023, 00:16:18,    227,    0.0,   13.1,   0.00,   0.00, 1016.2,    0.4, -999.0
20-08-2023, 00:16:29,    228,    0.0,   13.1,   0.00,   0.00, 1016.1,    0.1, -999.0
20-08-2023, 00:16:39,    227,    0.0,   13.2,   0.00,   0.00, 1016.1,    0.2, -999.0
20-08-2023, 00:16:49,    228,    0.0,   13.1,   0.00,   0.00, 1016.2,    0.3, -999.0
20-08-2023, 00:16:59,    227,    0.0,   13.0,   0.00,   0.00, 1016.1,    0.2, -999.0
20-08-2023, 00:17:09,    227,    0.0,   13.1,   0.00,   0.00, 1016.1,    0.2, -999.0
20-08-2023, 00:17:19,    227,    0.0,   13.1,   0.00,   0.00, 1016.2,    0.3, -999.0
20-08-2023, 00:17:28,    227,    0.0,   13.1,   0.00,   0.00, 1016.1,    0.1, -999.0
20-08-2023, 00:17:39,    227,    0.0,   13.1,   0.00,   0.00, 1016.2,    0.2, -999.0
20-08-2023, 00:17:49,    227,    0.0,   13.1,   0.00,   0.00, 1016.2,    0.0, -999.0
20-08-2023, 00:17:58,    227,    0.0,   13.1,   0.00,   0.00, 1016.2,    0.2, -999.0
20-08-2023, 00:18:08,    227,    0.0,   13.1,   0.00,   0.00, 1016.2,    0.5, -999.0
20-08-2023, 00:18:19,    228,    0.0,   13.1,   0.00,   0.00, 1016.2,    0.1, -999.0
20-08-2023, 00:18:28,    227,    0.0,   13.2,   0.00,   0.00, 1016.2,    0.2, -999.0
20-08-2023, 00:18:38,    227,    0.0,   13.1,   0.00,   0.00, 1016.2,    0.3, -999.0
20-08-2023, 00:18:48,    227,    0.0,   13.2,   0.00,   0.00, 1016.2,    0.3, -999.0
20-08-2023, 00:18:59,    227,    0.0,   13.1,   0.00,   0.00, 1016.2,    0.0, -999.0
20-08-2023, 00:19:08,    227,    0.0,   13.1,   0.00,   0.00, 1016.2,    0.6, -999.0
20-08-2023, 00:19:18,    227,    0.0,   13.1,   0.00,   0.00, 1016.2,    0.1, -999.0
20-08-2023, 00:19:28,    227,    0.0,   13.1,   0.00,   0.00, 1016.2,    0.0, -999.0
20-08-2023, 00:19:38,    227,    0.0,   13.0,   0.00,   0.00, 1016.2,    0.1, -999.0
20-08-2023, 00:19:48,    227,    0.0,   13.1,   0.00,   0.00, 1016.2,    0.1, -999.0
20-08-2023, 00:19:58,    227,    0.0,   13.1,   0.00,   0.00, 1016.2,    0.2, -999.0
20-08-2023, 00:20:08,    227,    0.0,   13.1,   0.00,   0.00, 1016.2,    0.3, -999.0
20-08-2023, 00:20:18,    227,    0.0,   13.1,   0.00,   0.00, 1016.2,    0.1, -999.0
20-08-2023, 00:20:28,    227,    0.0,   13.1,   0.00,   0.00, 1016.2,    0.3, -999.0
20-08-2023, 00:20:38,    227,    0.0,   13.1,   0.00,   0.00, 1016.2,    0.2, -999.0
20-08-2023, 00:20:48,    227,    0.0,   13.1,   0.00,   0.00, 1016.2,    0.1, -999.0
20-08-2023, 00:21:00,    227,    0.0,   13.1,   0.00,   0.00, 1016.2,    0.2, -999.0
20-08-2023, 00:21:08,    227,    0.0,   13.1,   0.00,   0.00, 1016.2,    0.2, -999.0
20-08-2023, 00:21:18,    227,    0.0,   13.1,   0.00,   0.00, 1016.2,    0.2, -999.0
20-08-2023, 00:21:28,    227,    0.0,   13.1,   0.00,   0.00, 1016.2,    0.2, -999.0
20-08-2023, 00:21:38,    227,    0.0,   13.0,   0.00,   0.00, 1016.2,    0.2, -999.0
20-08-2023, 00:21:48,    227,    0.0,   13.1,   0.00,   0.00, 1016.2,    0.2, -999.0
20-08-2023, 00:21:58,    227,    0.0,   13.1,   0.00,   0.00, 1016.2,    0.2, -999.0
20-08-2023, 00:22:08,    227,    0.0,   13.1,   0.00,   0.00, 1016.2,    0.2, -999.0
20-08-2023, 00:22:18,    227,    0.0,   13.1,   0.00,   0.00, 1016.2,    0.3, -999.0
20-08-2023, 00:22:28,    227,    0.0,   13.0,   0.00,   0.00, 1016.2,    0.2, -999.0
20-08-2023, 00:22:38,    227,    0.0,   13.0,   0.00,   0.00, 1016.2,    0.2, -999.0
20-08-2023, 00:22:48,    227,    0.0,   13.0,   0.00,   0.00, 1016.2,    0.2, -999.0
20-08-2023, 00:22:58,    227,    0.0,   13.0,   0.00,   0.00, 1016.2,    0.2, -999.0
20-08-2023, 00:23:08,    227,    0.0,   13.1,   0.00,   0.00, 1016.2,    0.2, -999.0
20-08-2023, 00:23:17,    227,    0.0,   13.0,   0.00,   0.00, 1016.2,    0.1, -999.0
20-08-2023, 00:23:28,    227,    0.0,   13.1,   0.00,   0.00, 1016.2,    0.2, -999.0
20-08-2023, 00:23:38,    227,    0.0,   13.1,   0.00,   0.00, 1016.2,    0.2, -999.0
20-08-2023, 00:23:47,    226,    0.0,   13.0,   0.00,   0.00, 1016.2,    0.3, -999.0
20-08-2023, 00:23:57,    227,    0.0,   13.1,   0.00,   0.00, 1016.2,    0.2, -999.0
20-08-2023, 00:24:08,    227,    0.0,   13.1,   0.00,   0.00, 1016.2,    0.1, -999.0
20-08-2023, 00:24:18,    227,    0.0,   13.1,   0.00,   0.00, 1016.2,    0.4, -999.0
20-08-2023, 00:24:27,    227,    0.0,   13.1,   0.00,   0.00, 1016.2,    0.2, -999.0
20-08-2023, 00:24:37,    226,    0.0,   13.1,   0.00,   0.00, 1016.2,    0.3, -999.0
20-08-2023, 00:24:48,    226,    0.0,   13.1,   0.00,   0.00, 1016.2,    0.2, -999.0
20-08-2023, 00:24:57,    227,    0.0,   13.1,   0.00,   0.00, 1016.2,    0.1, -999.0
20-08-2023, 00:25:07,    227,    0.0,   13.1,   0.00,   0.00, 1016.2,    0.1, -999.0
20-08-2023, 00:25:17,    227,    0.0,   13.1,   0.00,   0.00, 1016.2,    0.6, -999.0
20-08-2023, 00:25:27,    227,    0.0,   13.1,   0.00,   0.00, 1016.1,    0.2, -999.0
20-08-2023, 00:25:37,    227,    0.0,   13.1,   0.00,   0.00, 1016.1,    0.3, -999.0
20-08-2023, 00:25:47,    227,    0.0,   13.0,   0.00,   0.00, 1016.2,    0.3, -999.0
20-08-2023, 00:25:57,    227,    0.0,   13.1,   0.00,   0.00, 1016.2,    0.2, -999.0
20-08-2023, 00:26:07,    227,    0.0,   13.0,   0.00,   0.00, 1016.2,    0.2, -999.0
20-08-2023, 00:26:17,    227,    0.0,   13.0,   0.00,   0.00, 1016.2,    0.3, -999.0
20-08-2023, 00:26:27,    227,    0.0,   13.1,   0.00,   0.00, 1016.1,    0.1, -999.0
20-08-2023, 00:26:37,    227,    0.0,   13.1,   0.00,   0.00, 1016.2,    0.1, -999.0
20-08-2023, 00:26:47,    226,    0.0,   13.0,   0.00,   0.00, 1016.2,    0.1, -999.0
20-08-2023, 00:26:57,    227,    0.0,   13.1,   0.00,   0.00, 1016.2,    0.1, -999.0
20-08-2023, 00:27:07,    227,    0.0,   13.1,   0.00,   0.00, 1016.2,    0.2, -999.0
20-08-2023, 00:27:17,    226,    0.0,   13.0,   0.00,   0.00, 1016.2,    0.1, -999.0
20-08-2023, 00:27:27,    227,    0.0,   13.1,   0.00,   0.00, 1016.2,    0.2, -999.0
20-08-2023, 00:27:37,    226,    0.0,   13.1,   0.00,   0.00, 1016.2,    0.5, -999.0
20-08-2023, 00:27:47,    227,    0.0,   13.1,   0.00,   0.00, 1016.2,    0.5, -999.0
20-08-2023, 00:27:57,    227,    0.0,   13.1,   0.00,   0.00, 1016.2,    0.3, -999.0
20-08-2023, 00:28:07,    227,    0.0,   13.1,   0.00,   0.00, 1016.2,    0.2, -999.0
20-08-2023, 00:28:17,    227,    0.0,   13.1,   0.00,   0.00, 1016.2,    0.3, -999.0
20-08-2023, 00:28:27,    226,    0.0,   13.1,   0.00,   0.00, 1016.2,    0.2, -999.0
20-08-2023, 00:28:36,    227,    0.0,   13.1,   0.00,   0.00, 1016.2,    0.1, -999.0
20-08-2023, 00:28:47,    227,    0.0,   13.1,   0.00,   0.00, 1016.2,    0.2, -999.0
20-08-2023, 00:28:57,    227,    0.0,   13.1,   0.00,   0.00, 1016.1,    0.2, -999.0
20-08-2023, 00:29:06,    227,    0.0,   13.0,   0.00,   0.00, 1016.2,    0.3, -999.0
20-08-2023, 00:29:17,    227,    0.0,   13.1,   0.00,   0.00, 1016.2,    0.3, -999.0
20-08-2023, 00:29:27,    227,    0.0,   13.1,   0.00,   0.00, 1016.2,    0.1, -999.0
20-08-2023, 00:29:37,    227,    0.0,   13.0,   0.00,   0.00, 1016.1,    0.0, -999.0
20-08-2023, 00:29:46,    227,    0.0,   13.1,   0.00,   0.00, 1016.1,    0.1, -999.0
20-08-2023, 00:29:57,    227,    0.0,   13.1,   0.00,   0.00, 1016.2,    0.2, -999.0
20-08-2023, 00:30:07,    227,    0.0,   13.1,   0.00,   0.00, 1016.2,    0.2, -999.0
20-08-2023, 00:30:16,    227,    0.0,   13.1,   0.00,   0.00, 1016.2,    0.1, -999.0
20-08-2023, 00:30:26,    227,    0.0,   13.2,   0.00,   0.00, 1016.2,    0.5, -999.0
20-08-2023, 00:30:37,    226,    0.0,   13.0,   0.00,   0.00, 1016.2,    0.3, -999.0
20-08-2023, 00:30:46,    227,    0.0,   13.0,   0.00,   0.00, 1016.2,    0.3, -999.0
20-08-2023, 00:30:56,    227,    0.0,   13.0,   0.00,   0.00, 1016.2,    0.2, -999.0
20-08-2023, 00:31:06,    227,    0.0,   13.0,   0.00,   0.00, 1016.2,    0.4, -999.0
20-08-2023, 00:31:16,    228,    0.0,   13.1,   0.00,   0.00, 1016.2,    0.2, -999.0
20-08-2023, 00:31:26,    227,    0.0,   13.1,   0.00,   0.00, 1016.2,    0.3, -999.0
20-08-2023, 00:31:36,    227,    0.0,   13.1,   0.00,   0.00, 1016.2,    0.5, -999.0
20-08-2023, 00:31:46,    227,    0.0,   13.1,   0.00,   0.00, 1016.2,    0.2, -999.0
20-08-2023, 00:31:56,    227,    0.0,   13.1,   0.00,   0.00, 1016.2,    0.1, -999.0
20-08-2023, 00:32:06,    227,    0.0,   13.1,   0.00,   0.00, 1016.2,    0.2, -999.0
20-08-2023, 00:32:16,    226,    0.0,   13.1,   0.00,   0.00, 1016.2,    0.2, -999.0
20-08-2023, 00:32:26,    227,    0.0,   13.1,   0.00,   0.00, 1016.1,    0.2, -999.0
20-08-2023, 00:32:36,    227,    0.0,   13.1,   0.00,   0.00, 1016.2,    0.3, -999.0
20-08-2023, 00:32:46,    227,    0.0,   13.0,   0.00,   0.00, 1016.2,    0.3, -999.0
20-08-2023, 00:32:56,    227,    0.0,   13.1,   0.00,   0.00, 1016.2,    0.1, -999.0
20-08-2023, 00:33:06,    227,    0.0,   13.1,   0.00,   0.00, 1016.1,    0.1, -999.0
20-08-2023, 00:33:16,    227,    0.0,   13.1,   0.00,   0.00, 1016.2,    0.2, -999.0
20-08-2023, 00:33:26,    227,    0.0,   13.1,   0.00,   0.00, 1016.2,    0.1, -999.0
20-08-2023, 00:33:36,    227,    0.0,   13.0,   0.00,   0.00, 1016.2,    0.2, -999.0
20-08-2023, 00:33:46,    227,    0.0,   13.1,   0.00,   0.00, 1016.2,    0.3, -999.0
20-08-2023, 00:33:56,    227,    0.0,   13.1,   0.00,   0.00, 1016.2,    0.3, -999.0
20-08-2023, 00:34:06,    227,    0.0,   13.0,   0.00,   0.00, 1016.1,    0.3, -999.0
20-08-2023, 00:34:16,    227,    0.0,   13.1,   0.00,   0.00, 1016.2,    0.3, -999.0
20-08-2023, 00:34:26,    227,    0.0,   13.2,   0.00,   0.00, 1016.2,    0.3, -999.0
20-08-2023, 00:34:36,    227,    0.0,   13.1,   0.00,   0.00, 1016.2,    0.3, -999.0
20-08-2023, 00:34:46,    227,    0.0,   13.1,   0.00,   0.00, 1016.2,    0.2, -999.0
20-08-2023, 00:34:56,    226,    0.0,   13.1,   0.00,   0.00, 1016.2,    0.2, -999.0
20-08-2023, 00:35:05,    227,    0.0,   13.1,   0.00,   0.00, 1016.2,    0.3, -999.0
20-08-2023, 00:35:16,    227,    0.0,   13.1,   0.00,   0.00, 1016.2,    0.2, -999.0
20-08-2023, 00:35:26,    227,    0.0,   13.1,   0.00,   0.00, 1016.2,    0.1, -999.0
20-08-2023, 00:35:35,    226,    0.0,   13.1,   0.00,   0.00, 1016.2,    0.1, -999.0
20-08-2023, 00:35:46,    227,    0.0,   13.1,   0.00,   0.00, 1016.2,    0.1, -999.0
20-08-2023, 00:35:56,    227,    0.0,   13.1,   0.00,   0.00, 1016.2,    0.3, -999.0
20-08-2023, 00:36:05,    226,    0.0,   13.1,   0.00,   0.00, 1016.2,    0.4, -999.0
20-08-2023, 00:36:15,    226,    0.0,   13.1,   0.00,   0.00, 1016.2,    0.1, -999.0
20-08-2023, 00:36:26,    226,    0.0,   13.1,   0.00,   0.00, 1016.2,    0.1, -999.0
20-08-2023, 00:36:35,    227,    0.0,   13.1,   0.00,   0.00, 1016.2,    0.1, -999.0
20-08-2023, 00:36:45,    226,    0.0,   13.1,   0.00,   0.00, 1016.2,    0.3, -999.0
20-08-2023, 00:36:55,    226,    0.0,   13.1,   0.00,   0.00, 1016.2,    0.3, -999.0
20-08-2023, 00:37:06,    225,    0.1,   13.1,   0.00,   0.00, 1016.2,    0.2, -999.0
20-08-2023, 00:37:17,    225,    0.0,   13.1,   0.00,   0.00, 1016.2,    0.2, -999.0
20-08-2023, 00:37:25,    225,    0.0,   13.1,   0.00,   0.00, 1016.1,    0.2, -999.0
20-08-2023, 00:37:35,    225,    0.0,   13.1,   0.00,   0.00, 1016.2,    0.3, -999.0
20-08-2023, 00:37:45,    225,    0.0,   13.1,   0.00,   0.00, 1016.2,    0.1, -999.0
20-08-2023, 00:37:55,    225,    0.0,   13.1,   0.00,   0.00, 1016.2,    0.3, -999.0
20-08-2023, 00:38:05,    225,    0.0,   13.1,   0.00,   0.00, 1016.2,    0.1, -999.0
20-08-2023, 00:38:15,    225,    0.0,   13.1,   0.00,   0.00, 1016.2,    0.2, -999.0
20-08-2023, 00:38:25,    225,    0.0,   13.1,   0.00,   0.00, 1016.2,    0.1, -999.0
20-08-2023, 00:38:35,    225,    0.0,   13.1,   0.00,   0.00, 1016.2,    0.1, -999.0
20-08-2023, 00:38:45,    225,    0.0,   13.0,   0.00,   0.00, 1016.1,    0.3, -999.0
20-08-2023, 00:38:55,    225,    0.0,   13.1,   0.00,   0.00, 1016.1,    0.2, -999.0
20-08-2023, 00:39:05,    225,    0.0,   13.1,   0.00,   0.00, 1016.2,    0.3, -999.0
20-08-2023, 00:39:15,    224,    0.0,   13.1,   0.00,   0.00, 1016.2,    0.2, -999.0
20-08-2023, 00:39:25,    225,    0.0,   13.1,   0.00,   0.00, 1016.2,    0.3, -999.0
20-08-2023, 00:39:35,    224,    0.0,   13.1,   0.00,   0.00, 1016.2,    0.1, -999.0
20-08-2023, 00:39:45,    224,    0.0,   13.1,   0.00,   0.00, 1016.1,    0.2, -999.0
20-08-2023, 00:39:55,    224,    0.0,   13.0,   0.00,   0.00, 1016.2,    0.2, -999.0
20-08-2023, 00:40:05,    224,    0.0,   13.1,   0.00,   0.00, 1016.2,    0.3, -999.0
20-08-2023, 00:40:15,    224,    0.0,   13.1,   0.00,   0.00, 1016.2,    0.3, -999.0
20-08-2023, 00:40:25,    224,    0.0,   13.1,   0.00,   0.00, 1016.2,    0.3, -999.0
20-08-2023, 00:40:35,    222,    0.0,   13.1,   0.00,   0.00, 1016.2,    0.1, -999.0
20-08-2023, 00:40:45,    222,    0.0,   13.1,   0.00,   0.00, 1016.2,    0.2, -999.0
20-08-2023, 00:40:55,    219,    0.0,   13.0,   0.00,   0.00, 1016.2,    0.1, -999.0
20-08-2023, 00:41:05,    219,    0.0,   13.1,   0.00,   0.00, 1016.2,    0.2, -999.0
20-08-2023, 00:41:15,    219,    0.0,   13.1,   0.00,   0.00, 1016.2,    0.3, -999.0
20-08-2023, 00:41:24,    186,    0.0,   13.1,   0.00,   0.00, 1016.2,    0.2, -999.0
20-08-2023, 00:41:35,    186,    0.0,   13.2,   0.00,   0.00, 1016.2,    0.2, -999.0
20-08-2023, 00:41:45,    187,    0.0,   13.1,   0.00,   0.00, 1016.2,    0.1, -999.0
20-08-2023, 00:41:54,    186,    0.0,   13.1,   0.00,   0.00, 1016.2,    0.2, -999.0
20-08-2023, 00:42:04,    186,    0.0,   13.1,   0.00,   0.00, 1016.2,    0.3, -999.0
20-08-2023, 00:42:15,    186,    0.0,   13.2,   0.00,   0.00, 1016.3,    0.2, -999.0
20-08-2023, 00:42:24,    187,    0.0,   13.2,   0.00,   0.00, 1016.2,    0.2, -999.0
20-08-2023, 00:42:34,    188,    0.0,   13.1,   0.00,   0.00, 1016.2,    0.2, -999.0
20-08-2023, 00:42:44,    187,    0.0,   13.1,   0.00,   0.00, 1016.2,    0.2, -999.0
20-08-2023, 00:42:54,    187,    0.0,   13.2,   0.00,   0.00, 1016.2,    0.2, -999.0
20-08-2023, 00:43:04,    187,    0.0,   13.1,   0.00,   0.00, 1016.3,    0.3, -999.0
20-08-2023, 00:43:14,    187,    0.0,   13.2,   0.00,   0.00, 1016.2,    0.2, -999.0
20-08-2023, 00:43:25,    191,    0.0,   13.1,   0.00,   0.00, 1016.3,    0.4, -999.0
20-08-2023, 00:43:34,    191,    0.0,   13.2,   0.00,   0.00, 1016.3,    0.1, -999.0
20-08-2023, 00:43:44,    188,    0.0,   13.1,   0.00,   0.00, 1016.2,    0.3, -999.0
20-08-2023, 00:43:54,    187,    0.0,   13.1,   0.00,   0.00, 1016.2,    0.2, -999.0
20-08-2023, 00:44:04,    187,    0.0,   13.2,   0.00,   0.00, 1016.3,    0.1, -999.0
20-08-2023, 00:44:14,    188,    0.0,   13.1,   0.00,   0.00, 1016.3,    0.2, -999.0
20-08-2023, 00:44:24,    187,    0.0,   13.1,   0.00,   0.00, 1016.3,    0.1, -999.0
20-08-2023, 00:44:34,    188,    0.0,   13.1,   0.00,   0.00, 1016.2,    0.1, -999.0
20-08-2023, 00:44:44,    188,    0.0,   13.1,   0.00,   0.00, 1016.3,    0.1, -999.0
20-08-2023, 00:44:54,    188,    0.0,   13.1,   0.00,   0.00, 1016.3,    0.3, -999.0
20-08-2023, 00:45:04,    216,    0.0,   13.1,   0.00,   0.00, 1016.3,    0.3, -999.0
20-08-2023, 00:45:14,    212,    0.0,   13.1,   0.00,   0.00, 1016.3,    0.2, -999.0
20-08-2023, 00:45:24,    221,    0.0,   13.1,   0.00,   0.00, 1016.3,    0.0, -999.0
20-08-2023, 00:45:34,    219,    0.0,   13.1,   0.00,   0.00, 1016.3,    0.0, -999.0
20-08-2023, 00:45:44,    219,    0.0,   13.1,   0.00,   0.00, 1016.2,    0.0, -999.0
20-08-2023, 00:45:54,    220,    0.0,   13.1,   0.00,   0.00, 1016.3,    0.0, -999.0
20-08-2023, 00:46:04,    219,    0.0,   13.1,   0.00,   0.00, 1016.3,    0.0, -999.0
20-08-2023, 00:46:14,    220,    0.0,   13.1,   0.00,   0.00, 1016.3,    0.1, -999.0
20-08-2023, 00:46:24,    219,    0.0,   13.1,   0.00,   0.00, 1016.3,    0.4, -999.0
20-08-2023, 00:46:34,    220,    0.0,   13.1,   0.00,   0.00, 1016.3,    0.0, -999.0
20-08-2023, 00:46:44,    219,    0.0,   13.1,   0.00,   0.00, 1016.3,    0.3, -999.0